• In Portugal
  • List of Countries
  • For 7 days
  • Water Temperature
  • Satellite Maps
  • Weather Map
  • Weather Widgets
  • user-avatar
    Login

    Hourly Weather Niemcowizna

    Today, 15 August, Wednesday

    Time Temperature Precipitation Wind Pressure Humidity
    00:00 +17°C° 0 mm 2 mps 742 mmHg 94%
    01:00 +16°C° 0 mm 2 mps 742 mmHg 94%
    02:00 +16°C° 0 mm 2 mps 742 mmHg 95%
    03:00 +16°C° 0 mm 2 mps 742 mmHg 94%
    04:00 +15°C° 0 mm 2 mps 742 mmHg 94%
    05:00 +15°C° 0 mm 2 mps 742 mmHg 94%
    06:00 +17°C° 0 mm 3 mps 742 mmHg 90%
    07:00 +18°C° 0 mm 3 mps 743 mmHg 85%
    08:00 +19°C° 0 mm 4 mps 743 mmHg 81%
    09:00 +20°C° 0.1 mm 4 mps 743 mmHg 77%
    10:00 +22°C° 0.1 mm 5 mps 743 mmHg 72%
    11:00 +23°C° 0.1 mm 5 mps 743 mmHg 68%
    12:00 +23°C° 0.3 mm 5 mps 743 mmHg 67%
    13:00 +23°C° 0.3 mm 5 mps 743 mmHg 66%
    14:00 +25°C° 0.3 mm 5 mps 743 mmHg 65%
    15:00 +23°C° 0.2 mm 5 mps 744 mmHg 68%
    16:00 +23°C° 0.2 mm 5 mps 744 mmHg 70%
    17:00 +23°C° 0.2 mm 5 mps 744 mmHg 72%
    18:00 +21°C° 0 mm 5 mps 744 mmHg 78%
    19:00 +20°C° 0 mm 4 mps 745 mmHg 83%
    20:00 +18°C° 0 mm 3 mps 745 mmHg 89%
    21:00 +17°C° 0 mm 3 mps 745 mmHg 91%
    22:00 +17°C° 0 mm 3 mps 746 mmHg 94%
    23:00 +16°C° 0 mm 2 mps 746 mmHg 96%

    Tomorrow, 16 August, Thursday

    Time Temperature Precipitation Wind Pressure Humidity
    00:00 +15°C° 0 mm 2 mps 746 mmHg 97%
    01:00 +15°C° 0 mm 2 mps 747 mmHg 97%
    02:00 +15°C° 0 mm 2 mps 747 mmHg 97%
    03:00 +14°C° 0 mm 2 mps 747 mmHg 97%
    04:00 +14°C° 0 mm 2 mps 747 mmHg 97%
    05:00 +14°C° 0 mm 2 mps 747 mmHg 97%
    06:00 +15°C° 0 mm 2 mps 748 mmHg 93%
    07:00 +17°C° 0 mm 2 mps 748 mmHg 89%
    08:00 +18°C° 0 mm 2 mps 748 mmHg 84%
    09:00 +19°C° 0 mm 2 mps 748 mmHg 77%
    10:00 +21°C° 0 mm 2 mps 749 mmHg 70%
    11:00 +23°C° 0 mm 2 mps 749 mmHg 63%
    12:00 +24°C° 0 mm 2 mps 749 mmHg 62%
    13:00 +24°C° 0 mm 2 mps 748 mmHg 60%
    14:00 +24°C° 0 mm 2 mps 748 mmHg 58%
    15:00 +24°C° 0 mm 2 mps 748 mmHg 59%
    16:00 +24°C° 0 mm 2 mps 748 mmHg 60%
    17:00 +24°C° 0 mm 1 mps 748 mmHg 60%
    18:00 +23°C° 0 mm 1 mps 748 mmHg 67%
    19:00 +21°C° 0 mm 1 mps 748 mmHg 74%
    20:00 +19°C° 0 mm 1 mps 748 mmHg 81%
    21:00 +19°C° 0 mm 1 mps 748 mmHg 83%
    22:00 +18°C° 0 mm 1 mps 748 mmHg 85%
    23:00 +16°C° 0 mm 0 mps 749 mmHg 87%

    Day after tomorrow, 17 August, Friday

    Time Temperature Precipitation Wind Pressure Humidity
    00:00 +15°C° 0 mm 0 mps 749 mmHg 88%
    01:00 +15°C° 0 mm 0 mps 749 mmHg 89%
    02:00 +15°C° 0 mm 0 mps 749 mmHg 89%
    03:00 +14°C° 0 mm 0 mps 749 mmHg 90%
    04:00 +14°C° 0 mm 0 mps 749 mmHg 90%
    05:00 +15°C° 0 mm 1 mps 749 mmHg 91%
    06:00 +18°C° 0 mm 1 mps 749 mmHg 86%
    07:00 +19°C° 0 mm 1 mps 749 mmHg 82%
    08:00 +21°C° 0 mm 1 mps 749 mmHg 77%
    09:00 +22°C° 0 mm 1 mps 749 mmHg 72%
    10:00 +23°C° 0 mm 1 mps 749 mmHg 67%
    11:00 +25°C° 0 mm 1 mps 749 mmHg 61%
    12:00 +25°C° 0 mm 1 mps 748 mmHg 60%
    13:00 +26°C° 0 mm 2 mps 748 mmHg 58%
    14:00 +26°C° 0 mm 2 mps 748 mmHg 56%
    15:00 +26°C° 0 mm 2 mps 748 mmHg 56%
    16:00 +26°C° 0 mm 2 mps 748 mmHg 56%
    17:00 +26°C° 0 mm 2 mps 747 mmHg 56%
    18:00 +24°C° 0 mm 1 mps 747 mmHg 63%
    19:00 +23°C° 0 mm 1 mps 747 mmHg 69%
    20:00 +21°C° 0 mm 1 mps 747 mmHg 75%
    21:00 +20°C° 0 mm 1 mps 748 mmHg 78%
    22:00 +18°C° 0 mm 2 mps 748 mmHg 81%
    23:00 +18°C° 0 mm 2 mps 748 mmHg 84%

    18 August, Saturday

    Time Temperature Precipitation Wind Pressure Humidity
    00:00 +17°C° 0 mm 2 mps 748 mmHg 86%
    01:00 +17°C° 0 mm 2 mps 748 mmHg 88%
    02:00 +17°C° 0 mm 2 mps 748 mmHg 90%
    03:00 +16°C° 0 mm 2 mps 748 mmHg 91%
    04:00 +16°C° 0 mm 1 mps 748 mmHg 91%
    05:00 +16°C° 0 mm 1 mps 748 mmHg 92%
    06:00 +19°C° 0 mm 1 mps 748 mmHg 87%
    07:00 +20°C° 0 mm 1 mps 748 mmHg 82%
    08:00 +22°C° 0 mm 1 mps 748 mmHg 77%
    09:00 +23°C° 0 mm 2 mps 748 mmHg 70%
    10:00 +25°C° 0 mm 2 mps 748 mmHg 63%
    11:00 +27°C° 0 mm 2 mps 748 mmHg 57%
    12:00 +27°C° 0 mm 1 mps 748 mmHg 54%
    13:00 +28°C° 0 mm 1 mps 748 mmHg 51%
    14:00 +28°C° 0 mm 1 mps 748 mmHg 48%
    15:00 +28°C° 0 mm 1 mps 748 mmHg 51%
    16:00 +27°C° 0 mm 1 mps 748 mmHg 54%
    17:00 +27°C° 0 mm 1 mps 748 mmHg 57%
    18:00 +25°C° 0 mm 1 mps 748 mmHg 62%
    19:00 +24°C° 0 mm 1 mps 748 mmHg 66%
    20:00 +22°C° 0 mm 1 mps 748 mmHg 70%
    21:00 +21°C° 0 mm 1 mps 748 mmHg 75%
    22:00 +20°C° 0 mm 2 mps 749 mmHg 80%
    23:00 +19°C° 0 mm 2 mps 749 mmHg 85%

    19 August, Sunday

    Time Temperature Precipitation Wind Pressure Humidity
    00:00 +18°C° 0 mm 2 mps 749 mmHg 88%
    01:00 +17°C° 0 mm 2 mps 749 mmHg 91%
    02:00 +16°C° 0 mm 2 mps 749 mmHg 94%
    03:00 +16°C° 0 mm 2 mps 749 mmHg 94%
    04:00 +15°C° 0 mm 2 mps 749 mmHg 93%
    05:00 +15°C° 0 mm 2 mps 749 mmHg 92%
    06:00 +16°C° 0 mm 2 mps 749 mmHg 87%
    07:00 +17°C° 0 mm 2 mps 749 mmHg 81%
    08:00 +18°C° 0 mm 2 mps 750 mmHg 75%
    09:00 +19°C° 0 mm 2 mps 750 mmHg 70%
    10:00 +21°C° 0 mm 3 mps 750 mmHg 64%
    11:00 +22°C° 0 mm 3 mps 750 mmHg 58%
    12:00 +24°C° 0 mm 3 mps 750 mmHg 58%
    13:00 +23°C° 0 mm 4 mps 750 mmHg 58%
    14:00 +25°C° 0 mm 4 mps 749 mmHg 58%
    15:00 +23°C° 0 mm 4 mps 749 mmHg 60%
    16:00 +23°C° 0 mm 4 mps 749 mmHg 61%
    17:00 +23°C° 0 mm 4 mps 749 mmHg 63%
    18:00 +21°C° 0 mm 3 mps 749 mmHg 69%
    19:00 +20°C° 0 mm 3 mps 749 mmHg 76%
    20:00 +18°C° 0 mm 2 mps 749 mmHg 83%
    21:00 +18°C° 0 mm 2 mps 750 mmHg 86%
    22:00 +17°C° 0 mm 2 mps 750 mmHg 90%
    23:00 +17°C° 0 mm 2 mps 750 mmHg 93%

    20 August, Monday

    Time Temperature Precipitation Wind Pressure Humidity
    00:00 +16°C° 0 mm 2 mps 750 mmHg 94%
    01:00 +16°C° 0 mm 2 mps 750 mmHg 94%
    02:00 +15°C° 0 mm 1 mps 750 mmHg 95%
    03:00 +15°C° 0 mm 1 mps 750 mmHg 95%
    04:00 +14°C° 0 mm 1 mps 750 mmHg 95%
    05:00 +14°C° 0 mm 1 mps 750 mmHg 95%
    06:00 +15°C° 0 mm 1 mps 750 mmHg 90%
    07:00 +16°C° 0 mm 1 mps 750 mmHg 86%
    08:00 +18°C° 0 mm 1 mps 750 mmHg 81%
    09:00 +19°C° 0 mm 1 mps 750 mmHg 76%
    10:00 +20°C° 0 mm 2 mps 750 mmHg 72%
    11:00 +21°C° 0 mm 2 mps 750 mmHg 68%
    12:00 +21°C° 0.1 mm 2 mps 750 mmHg 66%
    13:00 +23°C° 0.1 mm 2 mps 750 mmHg 65%
    14:00 +24°C° 0.1 mm 2 mps 750 mmHg 63%
    15:00 +24°C° 0 mm 2 mps 749 mmHg 63%
    16:00 +24°C° 0 mm 2 mps 749 mmHg 63%
    17:00 +24°C° 0 mm 2 mps 749 mmHg 63%
    18:00 +22°C° 0 mm 1 mps 749 mmHg 69%
    19:00 +21°C° 0 mm 1 mps 749 mmHg 74%
    20:00 +19°C° 0 mm 1 mps 749 mmHg 79%
    21:00 +19°C° 0 mm 1 mps 748 mmHg 80%
    22:00 +19°C° 0 mm 1 mps 748 mmHg 80%
    23:00 +18°C° 0 mm 2 mps 748 mmHg 81%
    Show more